Regional Weather Roundup
Issued by NWS Midland/Odessa, TX

Skip options and go directly to product.
Home | Oldest Version | Previous Version | Current Version | All | Text Only | Save Text | Print | Product List | Glossary Off

Skip product version selection by date and time.   

076
ASUS44 KMAF 020610
RWRMAF
MIDLAND AREA WEATHER ROUNDUP
NATIONAL WEATHER SERVICE MIDLAND TX
100 AM CDT THU APR 02 2015

...IN SOUTHWEST TEXAS AND SOUTHEAST NEW MEXICO...

CITY           SKY/WX    TMP DP  RH WIND       PRES   REMARKS
ALPINE         CLEAR     56  35  44 SW10      30.06S
ANDREWS        FAIR      64  52  67 S12       29.87S
ARTESIA        CLEAR     64  32  29 SW15      29.87S
BIG SPRING     CLEAR     69  56  62 S17       29.88F
CARLSBAD       CLEAR     61  34  36 W10       29.85S
DRYDEN           N/A     67  61  81 E6        29.88S
FORT STOCKTON  CLEAR     63  45  51 S13       29.90S
GUAD PASS      CLEAR     62  31  31 SW22      30.00F
HOBBS          CLEAR     55  32  41 SW6       29.88S
MARFA          CLEAR     50  36  57 N3        30.04S
MIDLAND AIRPK  CLEAR     69  58  68 S13G20    29.88S
MIDLAND INTL   CLEAR     68  59  73 S13       29.87S
ODESSA         CLEAR     68  58  70 S17       29.88S
PECOS          CLEAR     59  39  47 S3        29.87R
PRESIDIO       FAIR      67  43  42 N5        29.91S
SEMINOLE       CLEAR     61  34  36 SW8       29.87S
SNYDER         CLEAR     68  56  65 S15G21    29.84S
WINK           CLEAR     61  37  41 W6        29.85R
$$
...OTHER STATIONS IN TEXAS...

CITY           SKY/WX    TMP DP  RH WIND       PRES   REMARKS
ABILENE        CLEAR     71  57  61 S22G30    29.82F
AMARILLO       CLEAR     62  28  27 SW13      29.79R
AUSTIN         CLOUDY    70  66  87 S12       29.92S
BROWNSVILLE    CLOUDY    74  72  93 S16       29.94F FOG
CORPUS CHRISTI CLOUDY    72  69  90 S18       29.92F
DALLAS FTW     PTCLDY    68  64  87 S17G26    29.85R
DEL RIO        CLEAR     69  63  81 E6        29.88R
EL PASO        PTCLDY    72  34  24 SW22      29.95R
HOUSTON INT    MOCLDY    69  67  93 S5        29.97S
LUBBOCK        PTCLDY    59  37  44 SW9       29.81S
SAN ANGELO     CLEAR     70  59  68 S18       29.86S
SAN ANTONIO    CLOUDY    71  67  87 S14       29.93S
WACO           PTCLDY    68  65  90 S17       29.88F
WICHITA FALLS  NOT AVBL
$$
...OTHER LOCATIONS IN NEW MEXICO...

CITY           SKY/WX    TMP DP  RH WIND       PRES   REMARKS
ALAMAGORDO     CLEAR     64  25  22 SW8       29.93S
ALBUQUERQUE    PTCLDY    62  20  19 W7        29.95R
CANNON AFB     MOCLDY    63  28  26 NW8       29.85S
CLOVIS         PTCLDY    54  28  37 W8        29.85S
HOLLOMAN AFB   CLEAR     58  26  29 W9        29.91S
ROSWELL        CLEAR     63  29  27 SW15      29.84S
RUIDOSO        CLEAR     57  23  26 W7        30.04R
SANTA FE       CLEAR     42  19  39 CALM      29.96R
TRUTH OR CONSE CLEAR     61  27  27 SE5       29.95R
TUCUMCARI      CLEAR     54  24  31 W6        29.81S
$$

USA.gov is the U.S. government's official web portal to all federal, state and local government web resources and services.